Orbital Elements
Epoch 1997 Aug. 20.0 TT = JDT 2450680.5
T 1997 Aug. 15.79983 TT Muraoka
q 1.2669704 (2000.0) P Q
n 0.15430066 Peri. 307.05031 +0.96898496 -0.23410094
a 3.4426341 Node 66.60976 +0.24513439 +0.87004412
e 0.6319764 Incl. 4.94721 +0.03126141 +0.43384327
P 6.39
>From 56 observations 1978 July 30-Nov. 29, mean residual 1".27.
|